Regional Weather Roundup
Issued by NWS

Home | Current Version | Previous Version | Text Only | Print | Product List | Glossary Off
Versions: 1 2 3 4 5 6 7 8 9 10 11 12 13 14 15 16 17 18 19 20 21 22 23 24 25 26 27 28 29 30 31 32 33 34 35 36 37 38 39 40 41 42 43 44 45 46 47 48 49 50

000
ASUS43 KLSX 190407
RWRMO

WEATHER SUMMARY FOR MISSOURI
NATIONAL WEATHER SERVICE SPRINGFIELD MO
1000 PM CST THU DEC 18 2014

NOTE: "FAIR" INDICATES FEW OR NO CLOUDS BELOW 12,000 FEET WITH NO
       SIGNIFICANT WEATHER AND/OR OBSTRUCTIONS TO VISIBILITY.
       CURRENT SKY AND/OR WEATHER CONDITIONS ARE NOT AVAILABLE FOR
       CHILLICOTHE AND FARMINGTON.

MOZ001>031-035>038-043-044-053-054-190500-
...NORTHERN AND WESTERN MISSOURI...

CITY           SKY/WX    TMP DP  RH WIND       PRES   REMARKS
KANSAS CTY INT FOG       31  30  96 NE5       30.25S VSB 1   WCI  26
KANSAS C DTWN  CLOUDY    33  30  88 E6        30.27R FOG     WCI  28
LEE`S SUMMIT   CLOUDY    32  29  88 NE3       30.26R
ST JOSEPH      CLOUDY    31  28  89 E5        30.28R WCI  26
CHILLICOTHE      N/A     31  26  82 CALM      30.28S
KIRKSVILLE     CLOUDY    29  26  89 E6        30.28R WCI  23

$$
MOZ066>068-077>081-088>096-101>105-190500-
...SOUTHWEST MISSOURI...

CITY           SKY/WX    TMP DP  RH WIND       PRES   REMARKS
SPRINGFIELD    CLOUDY    37  36  96 NE5       30.21R FOG
JOPLIN         CLOUDY    37  35  92 N5        30.24R

$$
MOZ032>034-039>042-045>050-055>058-069>072-190500-
...CENTRAL MISSOURI...

CITY           SKY/WX    TMP DP  RH WIND       PRES   REMARKS
COLUMBIA       CLOUDY    32  30  92 E7        30.26R WCI  26
JEFFERSON CITY CLOUDY    34  30  85 E5        30.28R WCI  30
ROLLA          FOG       33  32  96 E5        30.23R VSB 1/2 WCI  29
SEDALIA        FOG       33  32  96 E6        30.26R VSB 1/2 WCI  28
WHITEMAN AFB   CLOUDY    33  31  96 NE5       30.25R FOG     WCI  28
WARRENSBURG    CLOUDY    32  32 100 CALM      30.26S FOG
OSAGE BEACH    CLOUDY    34  32  93 NE3       30.25R VSB 1/2

$$
MOZ051-052-059>065-190500-
...EAST CENTRAL MISSOURI...

CITY           SKY/WX    TMP DP  RH WIND       PRES   REMARKS
ST LOUIS INTL  CLOUDY    34  25  69 NE5       30.29R WCI  30
SPIRIT OF STL  CLOUDY    33  27  78 NE3       30.28R
ST CHARLES     CLOUDY    32  26  78 CALM      30.29S

$$
MOZ072>076-082>087-097>100-106>115-190500-
...SOUTH CENTRAL AND SOUTHEAST MISSOURI...

CITY           SKY/WX    TMP DP  RH WIND       PRES   REMARKS
CAPE GIRARDEAU CLOUDY    36  33  89 NE3       30.28S
FARMINGTON     CLOUDY    34  34 100 N6        30.27R VSB 1/2 WCI  29
POPLAR BLUFF   CLOUDY    37  32  82 NE7       30.26R
WEST PLAINS    FOG       36  34  92 E5        30.23R VSB 1/2

$$


USA.gov is the U.S. government's official web portal to all federal, state and local government web resources and services.